This is the latest recevied weather packets stored in our database for station/object KC8P. If no packets are shown the sender has not sent any weather packets the latest 10 day(s).
| Time | Temp. | Humidity | Pressure | Rain* | Wind** | Luminosity | Snow |
|---|---|---|---|---|---|---|---|
| 1778361347 | 20° C | 41% | 1002 hPa | 0 mm | - | 446 W/m² | - |
| 1778361283 | 20° C | 42% | 1001.6 hPa | 0 mm | - | 454 W/m² | - |
| 1778361216 | 20° C | 41% | 1001.6 hPa | 0 mm | - | 455 W/m² | - |
| 1778361164 | 20° C | 42% | 1002 hPa | 0 mm | - | 459 W/m² | - |
| 1778361077 | 19.44° C | 45% | 1002 hPa | 0 mm | - | 467 W/m² | - |
| 1778361056 | 19.44° C | 45% | 1002 hPa | 0 mm | - | 473 W/m² | - |
| 1778361047 | 19.44° C | 42% | 1002 hPa | 0 mm | - | 473 W/m² | - |
| 1778360902 | 19.44° C | 42% | 1002 hPa | 0 mm | - | 471 W/m² | - |
| 1778360893 | 19.44° C | 41% | 1002 hPa | 0 mm | - | 473 W/m² | - |
| 1778360754 | 19.44° C | 42% | 1002 hPa | 0 mm | - | 484 W/m² | - |
| 1778360745 | 19.44° C | 43% | 1002 hPa | 0 mm | - | 487 W/m² | - |
| 1778360605 | 19.44° C | 44% | 1002 hPa | 0 mm | - | 491 W/m² | - |
| 1778360590 | 19.44° C | 42% | 1001.6 hPa | 0 mm | - | 502 W/m² | - |
| 1778360581 | 19.44° C | 43% | 1001.6 hPa | 0 mm | - | 507 W/m² | - |
| 1778360437 | 19.44° C | 44% | 1002 hPa | 0 mm | - | 511 W/m² | - |
| 1778360428 | 19.44° C | 43% | 1002 hPa | 0 mm | - | 514 W/m² | - |
| 1778360282 | 19.44° C | 47% | 1002 hPa | 0 mm | - | 517 W/m² | - |
| 1778360273 | 19.44° C | 45% | 1002 hPa | 0 mm | - | 521 W/m² | - |
| 1778360264 | 19.44° C | 45% | 1002 hPa | 0 mm | - | 524 W/m² | - |
| 1778360124 | 19.44° C | 43% | 1002 hPa | 0 mm | - | 526 W/m² | - |
| 1778360115 | 19.44° C | 45% | 1002 hPa | 0 mm | - | 527 W/m² | - |
| 1778359970 | 19.44° C | 46% | 1002 hPa | 0 mm | - | 531 W/m² | - |
| 1778359962 | 19.44° C | 47% | 1002 hPa | 0 mm | - | 539 W/m² | - |
| 1778359822 | 19.44° C | 46% | 1002.3 hPa | 0 mm | - | 542 W/m² | - |
| 1778359813 | 19.44° C | 47% | 1002 hPa | 0 mm | - | 539 W/m² | - |
* Rain latest hour (hover to see other rain measurements)
** Current wind speed in m/s (hover to see current wind gust speed)